Location: Zagreb
(45.8000°N, 16.0000°E)
Time: 17:30:12
(UTC+01:00)

Tiros 1 despin weight - Pass Details

Date: 01 February 2020
Orbit: 594 x 642 km, 48.2° (Epoch: 25 February)

Event Time Altitude Azimuth Distance (km) Brightness Sun altitude
Rises 12:35:00 0° 286° (WNW) 2,871 ? 26.8°
Reaches altitude 10° 12:37:18 10° 287° (WNW) 1,973 ? 26.7°
Maximum altitude 12:41:50 81° 14° (NNE) 632 ? 26.6°
Drops below altitude 10° 12:46:27 10° 104° (ESE) 2,000 ? 26.5°
Sets 12:48:47 0° 105° (ESE) 2,913 ? 26.4°
